カタログに戻る

CZ-6A DEB

運用中PO
NORAD 55556·DEBRIS·🇨🇳 China

打ち上げ Nov 11, 2022 から Taiyuan Satellite Launch Center

Loading…

次のパス (今後24時間)

TLE

最新Source: Space-Track

元期: Sep 14, 2026, 04:03 UTC

1 55556U 22151ZE  26257.16918592  .00009640  00000-0  12825-2 0  9999
2 55556  98.6255 334.0039 0061960 349.1516  10.8353 14.78598608203580

AllMySatでCZ-6A DEBをリアルタイム追跡

Download on the App Store